Location: Gro�sch�nbrunn
(49.5760°N, 11.8868°E)
Time: 13:12:36
(UTC+00:00)

COSMOS 2406 - Pass Details

Date: 18 September 2020
Orbit: 844 x 863 km, 71.0° (Epoch: 25 October)

Event Time Altitude Azimuth Distance (km) Brightness Sun altitude
Rises 20:47:05 0° 328° (NNW) 3,415 7.5 -30.9°
Reaches altitude 10° 20:49:34 10° 325° (NW) 2,476 6.5 -31.1°
Enters shadow 20:54:21 53° 281° (W) 1,033 3.8 -31.6°
